Location: Korczew
(51.3586°N, 19.4491°E)
Time: 22:33:54
(UTC+00:00)

USA 234 - Pass Details

Date: 19 May 2025
Orbit: 1097 x 1111 km, 123.0° (Epoch: 13 June)

Event Time Altitude Azimuth Distance (km) Brightness Sun altitude
Rises 22:28:41 0° 72° (ENE) 3,918 6.4 -18.6°
Reaches altitude 10° 22:31:12 10° 69° (ENE) 2,962 5.8 -18.6°
Maximum altitude 22:37:33 57° 353° (N) 1,288 3.9 -18.7°
Drops below altitude 10° 22:43:56 10° 277° (W) 2,969 5.6 -18.7°
Sets 22:46:27 0° 274° (W) 3,928 6.2 -18.6°
